GW6516 Weather Reports


time (UTC)temp
C
wind
direction
speed
KPH
gust
KPH
rain 1hr
cm
rain 24hr
cm
rain mn
cm
humidity
%
barometer
mb
20260504042032 14 0 0.0 0.0 0.00 0.74 0.66 88 1018.8
20260504041539 13 0 0.0 0.0 0.00 0.74 0.66 89 1018.7
20260504041026 13 0 0.0 0.0 0.00 0.74 0.66 89 1018.7
20260504040528 13 0 0.0 0.0 0.03 0.74 0.66 90 1018.7
20260504040047 13 0 0.0 0.0 0.03 0.74 0.66 90 1018.7
20260504035527 13 0 0.0 0.0 0.05 0.74 0.66 90 1018.7
20260504035032 13 0 0.0 0.0 0.05 0.74 0.66 91 1018.7
20260504034544 13 0 0.0 1.6 0.08 0.74 0.66 91 1018.7
20260504034030 13 0 0.0 1.6 0.08 0.74 0.66 91 1018.7
20260504033530 13 0 0.0 1.6 0.10 0.74 0.66 91 1018.6
20260504033051 13 0 0.0 0.0 0.13 0.74 0.66 91 1018.6
20260504032527 13 0 0.0 3.2 0.15 0.74 0.66 91 1018.6
20260504032027 13 0 0.0 3.2 0.15 0.74 0.66 91 1018.6
20260504031546 13 186 0.0 1.6 0.15 0.74 0.64 91 1018.5
20260504031028 13 0 0.0 0.0 0.18 0.74 0.64 91 1018.6
20260504030528 13 0 0.0 0.0 0.15 0.71 0.64 91 1018.6
20260504030047 12 0 0.0 3.2 0.18 0.71 0.64 91 1018.6
20260504025530 12 0 0.0 3.2 0.15 0.69 0.61 91 1018.7
20260504025031 12 0 0.0 0.0 0.15 0.69 0.61 91 1018.7
20260504024546 12 0 0.0 0.0 0.13 0.66 0.58 91 1018.6
20260504024026 12 0 0.0 0.0 0.13 0.64 0.56 91 1018.6
20260504023527 12 0 0.0 0.0 0.10 0.64 0.56 91 1018.6
20260504023047 12 0 0.0 0.0 0.10 0.61 0.53 91 1018.6
20260504022530 12 0 0.0 0.0 0.08 0.58 0.51 91 1018.5
20260504022027 12 0 0.0 0.0 0.08 0.56 0.48 91 1018.6
20260504021541 12 0 0.0 0.0 0.08 0.56 0.48 91 1018.5
20260504021026 12 0 0.0 0.0 0.08 0.56 0.46 91 1018.5
20260504020527 12 0 0.0 0.0 0.08 0.56 0.46 90 1018.5
20260504020051 12 0 0.0 3.2 0.08 0.53 0.46 90 1018.6
20260504015527 12 0 0.0 3.2 0.08 0.53 0.46 90 1018.5
20260504015028 12 0 0.0 0.0 0.10 0.53 0.46 90 1018.6
20260504014549 12 0 0.0 0.0 0.08 0.51 0.43 90 1018.5
20260504014027 12 0 0.0 0.0 0.10 0.51 0.43 90 1018.5
20260504013527 12 0 0.0 0.0 0.13 0.51 0.43 90 1018.5
20260504013050 12 0 0.0 0.0 0.10 0.48 0.41 90 1018.4
20260504012527 12 0 0.0 0.0 0.13 0.48 0.41 90 1018.4
20260504012027 12 0 0.0 3.2 0.10 0.46 0.38 90 1018.4
20260504011548 12 0 0.0 3.2 0.10 0.46 0.38 90 1018.4
20260504011030 12 0 0.0 3.2 0.10 0.46 0.36 90 1018.4
20260504010529 12 0 0.0 3.2 0.10 0.46 0.36 90 1018.3
20260504010046 12 180 0.0 1.6 0.08 0.43 0.36 90 1018.2
20260504005529 12 0 0.0 1.6 0.08 0.43 0.36 89 1018.2
20260504005029 12 0 0.0 3.2 0.08 0.41 0.33 89 1018.2
20260504004548 12 0 0.0 3.2 0.08 0.41 0.33 89 1018.1
20260504004031 12 0 0.0 1.6 0.05 0.38 0.30 89 1018.1
20260504003527 12 0 0.0 1.6 0.03 0.36 0.28 89 1018.2
20260504003041 12 0 0.0 0.0 0.03 0.36 0.28 89 1018.1
20260504002527 12 0 0.0 0.0 0.00 0.36 0.28 89 1018.1
20260504002030 12 0 0.0 3.2 0.00 0.36 0.28 89 1018.1
20260504001540 12 0 0.0 3.2 0.00 0.36 0.28 89 1018.0
20260504001030 12 0 0.0 3.2 0.00 0.33 0.25 89 1018.0
20260504000526 12 0 0.0 3.2 0.00 0.33 0.25 89 1018.0
20260504000051 12 0 0.0 3.2 0.00 0.33 0.25 89 1018.0
20260503235527 12 0 0.0 6.4 0.00 0.33 0.25 89 1018.0
20260503235027 12 160 0.0 6.4 0.00 0.33 0.25 89 1018.0
20260503234542 12 173 0.0 3.2 0.00 0.33 0.25 90 1017.9
20260503234027 12 0 0.0 3.2 0.00 0.33 0.25 90 1017.9
20260503233526 12 0 0.0 3.2 0.00 0.33 0.25 90 1017.9
20260503233041 12 0 0.0 3.2 0.00 0.33 0.25 90 1017.9
20260503232528 13 0 0.0 3.2 0.00 0.33 0.25 90 1017.9
20260503232028 13 0 0.0 3.2 0.00 0.33 0.25 90 1017.8
20260503231541 13 0 0.0 3.2 0.03 0.33 0.25 90 1017.8
20260503231029 13 0 0.0 0.0 0.00 0.30 0.23 90 1017.9
20260503230529 13 0 0.0 0.0 0.03 0.30 0.23 90 1017.9
20260503225530 13 0 0.0 0.0 0.05 0.30 0.23 90 1017.9
20260503225029 13 0 0.0 0.0 0.08 0.30 0.23 89 1017.9
20260503224545 13 0 0.0 0.0 0.08 0.30 0.23 89 1017.9
20260503224027 13 0 0.0 0.0 0.08 0.30 0.23 89 1017.8
20260503223528 13 0 0.0 0.0 0.08 0.30 0.23 89 1017.8
20260503223042 13 0 0.0 0.0 0.08 0.30 0.23 89 1017.8
20260503222531 13 0 0.0 0.0 0.08 0.30 0.23 89 1017.9
20260503222032 13 0 0.0 0.0 0.08 0.30 0.23 89 1017.7
20260503221539 13 0 0.0 0.0 0.08 0.28 0.20 89 1017.7
20260503221030 13 0 0.0 0.0 0.08 0.28 0.20 89 1017.6
20260503220527 13 0 0.0 0.0 0.08 0.28 0.18 89 1017.5
20260503220049 13 0 0.0 0.0 0.05 0.25 0.18 89 1017.6
20260503215526 13 0 0.0 0.0 0.08 0.25 0.18 89 1017.6
20260503215027 13 0 0.0 0.0 0.05 0.23 0.15 89 1017.5
20260503214547 13 0 0.0 0.0 0.05 0.23 0.15 89 1017.5
20260503214030 13 0 0.0 0.0 0.05 0.23 0.15 89 1017.5
20260503213527 13 0 0.0 0.0 0.08 0.23 0.15 89 1017.4
20260503213041 13 0 0.0 0.0 0.08 0.23 0.15 89 1017.4
20260503212527 13 0 0.0 0.0 0.08 0.23 0.15 89 1017.4
20260503212027 13 0 0.0 0.0 0.08 0.20 0.13 89 1017.4
20260503211549 13 0 0.0 0.0 0.08 0.20 0.13 89 1017.4
20260503211028 13 0 0.0 0.0 0.08 0.18 0.10 89 1017.4
20260503210527 13 0 0.0 0.0 0.08 0.18 0.10 89 1017.4
20260503210040 13 0 0.0 0.0 0.08 0.18 0.10 89 1017.5
20260503205527 13 0 0.0 0.0 0.08 0.18 0.08 88 1017.5
20260503205027 13 0 0.0 0.0 0.08 0.18 0.08 88 1017.5
20260503204547 13 0 0.0 0.0 0.08 0.18 0.08 88 1017.5
20260503204031 13 0 0.0 0.0 0.08 0.18 0.08 88 1017.5
20260503203530 14 0 0.0 0.0 0.08 0.15 0.08 88 1017.4
20260503203046 14 0 0.0 0.0 0.08 0.15 0.08 88 1017.5
20260503202527 14 0 0.0 0.0 0.08 0.15 0.08 88 1017.4
20260503202029 14 0 0.0 0.0 0.05 0.13 0.05 88 1017.4
20260503201541 14 0 0.0 0.0 0.05 0.13 0.05 88 1017.4
20260503201027 14 0 0.0 0.0 0.03 0.10 0.03 88 1017.3
20260503200527 14 0 0.0 0.0 0.03 0.10 0.03 88 1017.3
20260503200054 14 0 0.0 0.0 0.00 0.08 0.00 88 1017.3
20260503195528 14 0 0.0 0.0 0.00 0.08 0.00 88 1017.3
20260503195028 14 0 0.0 0.0 0.00 0.08 0.00 88 1017.3
20260503194545 14 0 0.0 0.0 0.00 0.08 0.00 88 1017.3
20260503194027 14 0 0.0 0.0 0.00 0.08 0.00 88 1017.3
20260503193527 14 0 0.0 0.0 0.00 0.08 0.00 88 1017.3
20260503193057 14 0 0.0 0.0 0.00 0.08 0.00 88 1017.3
20260503192527 14 0 0.0 0.0 0.00 0.08 0.00 88 1017.2
20260503192028 14 0 0.0 0.0 0.00 0.08 0.00 88 1017.2
20260503191546 14 0 0.0 0.0 0.00 0.08 0.00 88 1017.1
20260503191027 14 0 0.0 0.0 0.00 0.08 0.00 88 1017.2
20260503190527 14 0 0.0 0.0 0.00 0.08 0.00 88 1017.1
20260503190044 14 0 0.0 0.0 0.00 0.08 0.00 87 1017.2
20260503185526 14 0 0.0 0.0 0.00 0.08 0.00 87 1017.3
20260503185029 14 0 0.0 0.0 0.00 0.08 0.00 87 1017.2
20260503184552 14 0 0.0 1.6 0.00 0.08 0.00 87 1017.3
20260503184027 14 0 0.0 1.6 0.03 0.08 0.00 87 1017.3
20260503183527 14 0 0.0 3.2 0.03 0.08 0.00 87 1017.3
20260503183045 14 0 0.0 3.2 0.05 0.08 0.00 87 1017.3
20260503182527 14 0 0.0 3.2 0.05 0.08 0.00 87 1017.3
20260503182030 14 0 0.0 3.2 0.05 0.08 0.00 87 1017.2
20260503181604 14 0 0.0 1.6 0.05 0.08 0.00 87 1017.3
20260503181027 14 0 0.0 1.6 0.05 0.08 0.00 87 1017.3
20260503180529 15 0 0.0 0.0 0.05 0.08 0.00 87 1017.3
20260503180110 15 0 0.0 0.0 0.05 0.08 0.00 87 1017.3
20260503175529 15 0 0.0 1.6 0.05 0.08 0.08 87 1017.3
20260503175027 15 0 0.0 3.2 0.05 0.08 0.08 86 1017.3
20260503174554 15 0 0.0 1.6 0.03 0.05 0.05 86 1017.3
20260503174027 15 0 0.0 0.0 0.00 0.03 0.03 86 1017.4
20260503173527 15 0 0.0 0.0 0.00 0.00 0.00 86 1017.4
20260503173056 15 0 0.0 0.0 0.00 0.00 0.00 86 1017.4
20260503172527 15 0 0.0 0.0 0.00 0.00 0.00 86 1017.4
20260503172033 15 0 0.0 0.0 0.00 0.00 0.00 85 1017.4
20260503171543 15 0 0.0 0.0 0.00 0.00 0.00 85 1017.4
20260503171029 15 0 0.0 0.0 0.00 0.00 0.00 85 1017.4
20260503170532 15 0 0.0 0.0 0.00 0.00 0.00 85 1017.4
20260503150531 16 0 0.0 3.2 0.00 0.00 0.00 76 1016.8
20260503150111 16 0 0.0 3.2 0.00 0.00 0.00 76 1016.7
20260503131026 17 0 0.0 0.0 0.00 0.00 0.00 73 1015.4
20260503130527 17 0 0.0 0.0 0.00 0.00 0.00 73 1015.4
20260503110528 18 0 0.0 4.8 0.00 0.00 0.00 69 1015.0
20260503081542 17 0 1.6 6.4 0.00 0.00 0.00 72 1015.2
20260503081029 17 360 0.0 3.2 0.00 0.00 0.00 73 1015.2
20260503080529 17 30 0.0 3.2 0.00 0.00 0.00 72 1015.2
20260503072526 17 0 0.0 3.2 0.00 0.00 0.00 73 1015.2
20260503072031 17 20 0.0 6.4 0.00 0.00 0.00 73 1015.1
20260503071542 17 0 1.6 6.4 0.00 0.00 0.00 74 1015.2
20260503071028 17 0 0.0 3.2 0.00 0.00 0.00 75 1015.2
20260503070529 17 0 0.0 4.8 0.00 0.00 0.00 75 1015.3
20260503055029 16 339 1.6 4.8 0.00 0.00 0.00 77 1015.4
20260503054542 16 0 0.0 3.2 0.00 0.00 0.00 77 1015.4
20260503054029 16 0 0.0 4.8 0.00 0.00 0.00 78 1015.4
20260503053529 15 0 1.6 4.8 0.00 0.00 0.00 79 1015.4
20260503053039 15 336 1.6 4.8 0.00 0.00 0.00 77 1015.4
20260503052527 15 0 0.0 6.4 0.00 0.00 0.00 78 1015.4
20260503052029 15 333 1.6 6.4 0.00 0.00 0.00 78 1015.5
20260503051541 15 57 0.0 3.2 0.00 0.00 0.00 78 1015.5
20260503051031 15 30 0.0 6.4 0.00 0.00 0.00 78 1015.5
20260503050529 15 0 1.6 6.4 0.00 0.00 0.00 78 1015.4
20260503050040 15 59 0.0 4.8 0.00 0.00 0.00 78 1015.4
20260503045528 15 57 0.0 4.8 0.00 0.00 0.00 78 1015.4
20260503045028 15 19 1.6 4.8 0.00 0.00 0.00 78 1015.4
20260503044536 15 0 0.0 4.8 0.00 0.00 0.00 78 1015.4
20260503044030 15 24 0.0 4.8 0.00 0.00 0.00 78 1015.4
20260503043529 15 0 0.0 3.2 0.00 0.00 0.00 78 1015.3
20260503043042 15 0 0.0 6.4 0.00 0.00 0.00 79 1015.3
20260503042532 15 0 0.0 6.4 0.00 0.00 0.00 78 1015.2